Regional Weather Roundup
Issued by NWS

Home | Current Version | Previous Version | Text Only | Print | Product List | Glossary Off
Versions: 1 2 3 4 5 6 7 8 9 10 11 12 13 14 15 16 17 18 19 20 21 22 23 24 25 26 27 28 29 30 31 32 33 34 35 36 37 38 39 40 41 42 43 44 45 46 47 48 49 50

371
ASUS45 KBOU 042107
RWRCO

WEATHER ROUNDUP FOR COLORADO
NATIONAL WEATHER SERVICE DENVER/BOULDER CO
200 PM MST SUN DEC 04 2016

NOTE: "FAIR" INDICATES FEW OR NO CLOUDS BELOW 12000 FEET WITH NO
SIGNIFICANT WEATHER AND/OR OBSTRUCTIONS TO VISIBILITY.

COZ001>005-013-030-031-042200-
...NORTHWEST COLORADO...

CITY           SKY/WX    TMP DP  RH WIND       PRES   REMARKS
CRAIG          FAIR      35  13  40 SE3       30.01F
HAYDEN         PTSUNNY   30  10  43 CALM      30.01F
MEEKER         FAIR      32  18  56 SE3       30.03F
MOUNT WERNER   NOT AVBL
STEAMBOAT SPGS CLOUDY    26  16  65 CALM      30.01F
WALDEN           N/A     32  14  47 SE13G20   29.97F WCI  22
$$

COZ006>008-011-042200-
...WEST CENTRAL VALLEYS...

CITY           SKY/WX    TMP DP  RH WIND       PRES   REMARKS
GRAND JUNCTION FAIR      38  16  40 CALM      30.11F
MONTROSE       FAIR      38  12  34 SE3       30.11F
EAGLE          SUNNY     36   9  32 CALM      30.06F
RIFLE          FAIR      35  13  40 NW5       30.10F WCI  31
DELTA          NOT AVBL
NUCLA          FAIR      39  10  30 CALM      30.13F
$$

COZ017>023-064>068-042200-
...SOUTHWEST COLORADO...

CITY           SKY/WX    TMP DP  RH WIND       PRES   REMARKS
DURANGO        FAIR      39  21  48 VRB3      30.08F
CORTEZ         FAIR      37  20  50 W5        30.13F
PAGOSA SPRINGS FAIR      38   9  30 CALM      30.09F
TELLURIDE      FAIR      39  10  30 SW6       30.10S
WOLF CREEK PAS FAIR      27  10  50 SW10      30.16F WCI  17
$$

COZ009-010-012-014-032>034-037-058>063-042200-
...CENTRAL COLORADO...

CITY           SKY/WX    TMP DP  RH WIND       PRES   REMARKS
ASPEN          FAIR      33  12  41 N9        30.02F WCI  25
BUENA VISTA    FAIR      47   9  21 W24G32    29.94F
COPPER MTN     FAIR      27  10  50 W21G28    30.03F WCI  13
BERTHOUD PASS  PTSUNNY   14   3  62 NW24G32   29.99F WCI  -5
COTTONWOOD PAS FAIR      41   9  26 SW29G41   29.96F
GUNNISON       FAIR      26   9  48 W6        30.10F WCI  19
KREMMLING      FAIR      36  14  41 SE7       30.02F
LEADVILLE      FAIR      34  12  40 NW12G18   29.99F WCI  25
MONARCH PASS   FAIR      21   9  58 W35       30.14F WCI   2
SALIDA         FAIR      45  10  24 SW13G22   30.01F
SUNLIGHT       FAIR      23  19  86 SW15G26   30.07F WCI  10
WILKERSON PASS FAIR      32   9  37 W18G32    29.96F WCI  20
$$

COZ069>075-042200-
...SAN LUIS VALLEY/SANGRE DE CRISTO MOUNTAINS...

CITY           SKY/WX    TMP DP  RH WIND       PRES   REMARKS
ALAMOSA        FAIR      34  10  37 S6        30.06F WCI  29
LA VETA PASS   FAIR      32   5  32 NE21G30   30.03F WCI  20
SAGUACHE       FAIR      36   7  30 S9        30.07F
$$

COZ035-036-038>040-042200-
...NORTHERN COLORADO FRONT RANGE...

CITY           SKY/WX    TMP DP  RH WIND       PRES   REMARKS
DENVER INTL AP FAIR      53  13  20 N7G18     29.84F
DMNS CITY PARK   N/A     54  10  17 W5        29.83F
AURORA         MOSUNNY   52  10  18 S6        29.85F
FRONT RANGE AP MOSUNNY   54  12  19 N10G18    29.86
ERIE MUNI ARPT FAIR      51  12  20 NE5       29.83F
BOULDER MUN AP FAIR      50  16  25 NE6       29.82F
CENTENNIAL     FAIR      52   5  15 NE7       29.85F
BROOMFIELD     MOSUNNY   48  16  27 W22G40    29.83F
FORT COLLINS   FAIR      39  14  35 NE3       29.84F
LONGMONT       FAIR      54  16  22 N3        29.83F
$$

COZ041-046-047-076>085-087-088-042200-
...PIKES PEAK/PALMER DIVIDE AND SOUTHERN FOOTHILLS...

CITY           SKY/WX    TMP DP  RH WIND       PRES   REMARKS
COLO. SPRINGS  FAIR      44   6  21 SE7       29.90F
A. F. ACADEMY  FAIR      44  11  25 SW6       29.88F
SCHRIEVER AFB  NOT AVBL
ELLICOTT       LGT RAIN N/A N/A N/A S6        29.90F
FALCON         FAIR      43   5  20 S7        29.91F
FORT CARSON    FAIR      45   9  22 SE12      29.88F
LIMON          FAIR      48   6  18 S14       29.88F
MONUMENT HILL  FAIR      45   9  23 SE9       29.89F
TRINIDAD       FAIR      51   8  17 SE6       29.92F
$$

COZ042>045-048>051-090-091-042200-
...NORTHEAST COLORADO...

CITY           SKY/WX    TMP DP  RH WIND       PRES   REMARKS
GREELEY ARPT   FAIR      42  13  30 VRB3      29.85F
AKRON          FAIR      50   4  15 SW14      29.85F
BURLINGTON     FAIR      49   8  19 SW17      29.91F
WRAY           NOT AVBL
STERLING       FAIR      50  12  22 SW12      29.83F
HOLYOKE        FAIR      54  10  17 SW14      29.86F
FORT MORGAN    FAIR      52   9  17 S6        29.84F
$$

COZ086-089-092>099-042200-
...SOUTHEAST COLORADO...

CITY           SKY/WX    TMP DP  RH WIND       PRES   REMARKS
PUEBLO         FAIR      47  15  27 SE7       29.89F
LA JUNTA       FAIR      52  13  21 MISG      29.91F
LAMAR          FAIR      52  12  20 SW12G20   29.92F
SPRINGFIELD      N/A     48  14  25 S16G22    29.96F
$$




USA.gov is the U.S. government's official web portal to all federal, state and local government web resources and services.